Weather History for Winfield, KS

Change the Weather History Date:

Tuesday, August 20, 2013

  Actual Average Record
Temperature  
Mean Temperature 78 °F -  
Max Temperature 88 °F 90 °F 106 °F (2001)
Min Temperature 68 °F 67 °F 50 °F (2012)
Cooling Degree Days 13    
Growing Degree Days 28 (Base 50)    
Moisture  
Dew Point 67 °F    
Average Humidity 72    
Maximum Humidity 87    
Minimum Humidity 53    
Precipitation  
Precipitation 0.00 in - - ()
Sea Level Pressure  
Sea Level Pressure 30.01 in    
Wind  
Wind Speed 7 mph (SSE)    
Max Wind Speed 13 mph    
Max Gust Speed 20 mph    
Visibility 10 miles    
Events      
Averages and records for this station are not official NWS values.
T = Trace of Precipitation, MM = Missing Value Source: NWS Daily Summary

Daily Weather History Graph

Daily Weather History Graph

Search for Another Location

Airport:

Trip Planner

Search our weather history database for the weather conditions in past years. The results will help you decide how hot, cold, wet, or windy it might be!

Date:

Astronomy

Aug. 20, 2013 Rise Set
Actual Time 6:49 AM CDT 8:13 PM CDT
Civil Twilight 6:21 AM CDT 8:40 PM CDT
Nautical Twilight 5:49 AM CDT 9:13 PM CDT
Astronomical Twilight 5:14 AM CDT 9:47 PM CDT
Moon 7:47 PM CDT (8/20) 6:19 AM CDT (8/20)
Length of Visible Light 14h 18m
Length of Day
13h 24m
Full, 100% of the Moon is Illuminated
Aug 20
Full
Aug 20
Full
Aug 28
Last Quarter
Sep 5
New
Sep 12
First Quarter

Hourly Weather History & Observations

Time (CDT) Temp. Heat Index Dew Point Humidity Pressure Visibility Wind Dir Wind Speed Gust Speed Precip Events Conditions
12:54 AM 71.1 °F - 66.9 °F 87% 30.02 in 10.0 mi SSE 8.1 mph - N/A   Clear
1:54 AM 72.0 °F - 66.0 °F 81% 30.01 in 10.0 mi SE 5.8 mph - N/A   Clear
2:54 AM 71.1 °F - 66.0 °F 84% 30.00 in 10.0 mi SE 6.9 mph - N/A   Clear
3:54 AM 70.0 °F - 64.9 °F 84% 30.00 in 10.0 mi SE 4.6 mph - N/A   Clear
4:54 AM 69.1 °F - 64.9 °F 87% 30.00 in 10.0 mi SE 5.8 mph - N/A   Clear
5:54 AM 69.1 °F - 64.9 °F 87% 30.01 in 10.0 mi SE 4.6 mph - N/A   Clear
6:54 AM 68.0 °F - 64.0 °F 87% 30.03 in 10.0 mi SSE 3.5 mph - N/A   Clear
7:54 AM 70.0 °F - 64.9 °F 84% 30.05 in 10.0 mi South 3.5 mph - N/A   Clear
8:54 AM 73.9 °F - 64.9 °F 73% 30.06 in 10.0 mi South 9.2 mph - N/A   Clear
9:54 AM 77.0 °F - 66.0 °F 69% 30.05 in 10.0 mi South 12.7 mph - N/A   Clear
10:54 AM 81.0 °F 83.3 °F 66.9 °F 62% 30.05 in 10.0 mi South 9.2 mph - N/A   Clear
11:54 AM 84.0 °F 87.0 °F 68.0 °F 58% 30.04 in 10.0 mi South 10.4 mph 16.1 mph N/A   Clear
12:54 PM 84.9 °F 88.2 °F 68.0 °F 57% 30.03 in 10.0 mi South 9.2 mph - N/A   Clear
1:54 PM 87.1 °F 90.6 °F 68.0 °F 53% 30.01 in 10.0 mi South 9.2 mph 19.6 mph N/A   Clear
2:54 PM 88.0 °F 92.1 °F 69.1 °F 53% 29.99 in 10.0 mi SSE 9.2 mph - N/A   Clear
3:54 PM 87.1 °F 92.0 °F 70.0 °F 57% 29.98 in 10.0 mi SSE 9.2 mph - N/A   Clear
4:54 PM 87.1 °F 90.6 °F 68.0 °F 53% 29.98 in 10.0 mi SSE 10.4 mph - N/A   Clear
5:54 PM 86.0 °F 89.4 °F 68.0 °F 55% 29.97 in 10.0 mi SSE 11.5 mph - N/A   Clear
6:54 PM 84.0 °F 87.0 °F 68.0 °F 58% 29.97 in 10.0 mi SSE 10.4 mph - N/A   Clear
7:54 PM 81.0 °F 84.1 °F 69.1 °F 67% 29.97 in 10.0 mi SE 6.9 mph - N/A   Clear
8:54 PM 77.0 °F - 70.0 °F 79% 29.98 in 10.0 mi SE 5.8 mph - N/A   Clear
9:54 PM 73.9 °F - 69.1 °F 85% 30.00 in 10.0 mi SSE 4.6 mph - N/A   Clear
10:54 PM 75.0 °F - 68.0 °F 79% 30.02 in 10.0 mi ESE 4.6 mph - N/A   Clear
11:54 PM 73.9 °F - 68.0 °F 82% 30.01 in 10.0 mi SE 5.8 mph - N/A   Clear